STARLINK-30122, 56688

Orbit data source: Space-Track

STARLINK-30122, 56688 is a payload satellite owned by SpaceX/Seattle (US) in LEO that was launched on Fri, 19 May 2023 UTC via an FALCON 9 launch vehicle from the Air Force Eastern Test Range (AFETR). Payload-class satellites include a variety of spacecraft equipped with specific instruments for various scientific and technological missions. These include communications satellites like Starlink; space stations such as the ISS; scientific satellites like the Hubble; Earth observation satellites from companies like Planet Labs, Umbra, and HawkEye 360; GPS; miniature CubeSats for education and research; and military/defense satellites.

Loading next visibility...
Identifier
56688, 2023-067A
Orbit
LEO
Country
Flag of USUS
Related business
Manufacturer
SpaceX/Seattle
Mission
Operational Commercial Communications
Bus & Motor
STARLINK V2M, Unknown motor
Mass
730 kg wet, ~700 kg dry
Launch date (UTC)
2023-05-19 (3 years ago)
Launch vehicle
FALCON 9
Launch site
Air Force Eastern Test Range (AFETR)
Object type
Payload
Rocket body
Debris
Shape & HBR
Box + 2 Pan, 17.7 m
Radar Cross Section
33.884 m², Large (>1 m²)

Expand to show TLE details & history
Last TLE update: 2 days ago

TLE from 2 days ago
0 STARLINK-30122
1 56688U 23067A   26171.12525561 -.00003451  00000-0 -11598-3 0  9997
2 56688  43.0018  59.5592 0000499 301.5047  58.5756 15.27578303171352
Epoch: 2026-06-20T03:00Z
TLE epoch observation values (Epoch: 2026-06-20T03:00:22.084Z)
Latitude
-0.00002°
Longitude
106.12279°
Altitude
482.651 km
Speed
7.626 km/s
True Right ascension
03h 58m 14s
True Declination
0° 00' 00"
Sunlit
Object was in daylight at epoch
Visualization orbit readout
Latitude
Unknown
Longitude
Unknown
Altitude
Unknown
Speed
Unknown
Apparent Right ascension
Unknown
Apparent Declination
Unknown
Sunlit
N/A
Visualization observer readout
Local Sidereal Time
21:33:37
Azimuth
Unknown
Elevation
Unknown
Doppler factor
Unknown
Orbital elements
Apogee altitude
485.342 km
Perigee altitude
484.657 km
Semi-major axis
6,863.136 km
Eccentricity
0.00005
Inclination
43.0018°
RAAN
59.5592°
Arg. of periapsis
301.5047°
True anomaly
58.58048°
Mean anomaly
58.5756°
Eccentric anomaly
58.57804°
Mean motion
3.81733 °/min
Orbital period
94.31 mins
BSTAR
-0.00011598
Loading maneuver chart data...
Computing Atmospheric mass density...
Loading historical data...
Loading historical data...
Loading historical data...
Loading historical data...
Loading historical data...
Loading historical data...
Loading historical data...

Documentation

Showing up to 5 results
|